sat.trackr.live / text

‹ back to catalog

HJ-2A

NORAD 46478 · 2020-067A

PAYLOAD ACTIVE UNKNOWN

§ Identity

Operator
Country
PRC
Launch date
2020-09-27
Launch site
TAISC
Launch vehicle
Mass (kg)
RCS (m²)

External: N2YO · Heavens-Above · Gunter

§ Orbital elements

Epoch: 2026-05-25T04:37:14.040768Z

Period
97.52 min
Inclination
97.8822°
Eccentricity
0.0003232
Mean motion
14.76578191 rev/d
Perigee alt
637.9 km
Apogee alt
642.4 km
Semi-major
7,018.3 km
B*
1.1648e-4
RAAN
224.1070°
Arg perigee
6.7202°
Mean anomaly
353.4051°
Rev number
30,486

§ Raw data

HJ-2A1 46478U 20067A   26145.19252362  .00000763  00000+0  11648-3 0  99902 46478  97.8822 224.1070 0003232   6.7202 353.4051 14.76578191304861

JSON: /api/v1/satellites/46478 · /tle

For live sub-satellite position, see the globe view (requires WebGL).

§ Visibility from observer

Set your observer location to see the next 7 days of passes ≥ 10°. The values pass through the URL so the page stays shareable.

No JS? Fill the form by hand. The geolocation button needs JavaScript.

§ Radio — SatNOGS DB

ModeDescriptionDownlinkUplink
FM S-band telemetry 2.238 GHz

1 transmitter · refreshed weekly from db.satnogs.org